Previsão horária em Abinsk

Hoje, 17 Janeiro, Domingo

Tempo Temperatura Precipitação Vento Pressão Humidade
00:00 -4°C° 0 mm 4 m/s 756 mmHg 90%
01:00 -5°C° 0.3 mm 5 m/s 755 mmHg 91%
02:00 -5°C° 0.3 mm 5 m/s 754 mmHg 91%
03:00 -5°C° 0 mm 6 m/s 753 mmHg 93%
04:00 -5°C° 0.6 mm 6 m/s 752 mmHg 94%
05:00 -6°C° 0.6 mm 7 m/s 751 mmHg 94%
06:00 -6°C° 0.6 mm 7 m/s 750 mmHg 95%
07:00 -7°C° 2.5 mm 7 m/s 749 mmHg 95%
08:00 -7°C° 2.5 mm 7 m/s 748 mmHg 95%
09:00 -7°C° 2.5 mm 7 m/s 748 mmHg 95%
10:00 -7°C° 3.4 mm 7 m/s 748 mmHg 95%
11:00 -7°C° 3.4 mm 7 m/s 748 mmHg 95%
12:00 -6°C° 3.4 mm 6 m/s 748 mmHg 96%
13:00 -5°C° 0.9 mm 6 m/s 747 mmHg 96%
14:00 -4°C° 0.9 mm 6 m/s 747 mmHg 96%
15:00 -4°C° 0.9 mm 5 m/s 747 mmHg 96%
16:00 -2°C° 0.2 mm 5 m/s 747 mmHg 96%
17:00 -2°C° 0.2 mm 4 m/s 747 mmHg 97%
18:00 -2°C° 0.2 mm 4 m/s 748 mmHg 97%
19:00 -2°C° 0.4 mm 4 m/s 748 mmHg 97%
20:00 -3°C° 0.4 mm 4 m/s 748 mmHg 97%
21:00 -4°C° 0.4 mm 5 m/s 749 mmHg 97%
22:00 -5°C° 0.5 mm 5 m/s 749 mmHg 96%
23:00 -6°C° 0.5 mm 5 m/s 750 mmHg 95%

Amanhã, 18 Janeiro, Segunda-feira

Tempo Temperatura Precipitação Vento Pressão Humidade
00:00 -7°C° 0.5 mm 5 m/s 751 mmHg 94%
01:00 -8°C° 0.1 mm 5 m/s 751 mmHg 94%
02:00 -8°C° 0.1 mm 4 m/s 752 mmHg 94%
03:00 -7°C° 0.1 mm 3 m/s 753 mmHg 94%
04:00 -7°C° 0 mm 3 m/s 754 mmHg 94%
05:00 -7°C° 0 mm 2 m/s 754 mmHg 95%
06:00 -7°C° 0 mm 2 m/s 755 mmHg 95%
07:00 -7°C° 0 mm 2 m/s 756 mmHg 95%
08:00 -6°C° 0 mm 2 m/s 756 mmHg 95%
09:00 -6°C° 0 mm 2 m/s 757 mmHg 95%
10:00 -5°C° 0 mm 2 m/s 758 mmHg 93%
11:00 -4°C° 0 mm 2 m/s 758 mmHg 91%
12:00 -3°C° 0 mm 2 m/s 759 mmHg 89%
13:00 -3°C° 0 mm 2 m/s 759 mmHg 89%
14:00 -3°C° 0 mm 2 m/s 759 mmHg 88%
15:00 -2°C° 0 mm 2 m/s 759 mmHg 88%
16:00 -2°C° 0 mm 1 m/s 759 mmHg 90%
17:00 -3°C° 0 mm 1 m/s 759 mmHg 92%
18:00 -4°C° 0 mm 1 m/s 759 mmHg 95%
19:00 -4°C° 0 mm 1 m/s 759 mmHg 94%
20:00 -6°C° 0 mm 1 m/s 760 mmHg 94%
21:00 -6°C° 0 mm 1 m/s 760 mmHg 93%
22:00 -6°C° 0 mm 1 m/s 760 mmHg 91%
23:00 -7°C° 0 mm 1 m/s 760 mmHg 89%

Depois de amanhã, 19 Janeiro, Terça-feira

Tempo Temperatura Precipitação Vento Pressão Humidade
00:00 -7°C° 0 mm 1 m/s 760 mmHg 87%
01:00 -7°C° 0 mm 1 m/s 760 mmHg 86%
02:00 -8°C° 0 mm 2 m/s 760 mmHg 86%
03:00 -8°C° 0 mm 2 m/s 760 mmHg 85%
04:00 -8°C° 0.7 mm 2 m/s 760 mmHg 87%
05:00 -8°C° 0.7 mm 2 m/s 760 mmHg 90%
06:00 -7°C° 0.7 mm 2 m/s 760 mmHg 92%
07:00 -7°C° 0 mm 2 m/s 760 mmHg 90%
08:00 -8°C° 0 mm 2 m/s 760 mmHg 88%
09:00 -8°C° 0 mm 2 m/s 761 mmHg 86%
10:00 -6°C° 0.1 mm 2 m/s 761 mmHg 87%
11:00 -5°C° 0.1 mm 2 m/s 761 mmHg 88%
12:00 -4°C° 0.1 mm 2 m/s 761 mmHg 88%
13:00 -4°C° 0.1 mm 2 m/s 761 mmHg 88%
14:00 -5°C° 0.1 mm 3 m/s 760 mmHg 88%
15:00 -6°C° 0.1 mm 3 m/s 760 mmHg 89%
16:00 -6°C° 0 mm 2 m/s 761 mmHg 90%
17:00 -7°C° 0 mm 2 m/s 761 mmHg 91%
18:00 -8°C° 0 mm 1 m/s 761 mmHg 92%
19:00 -8°C° 0 mm 1 m/s 762 mmHg 91%
20:00 -9°C° 0 mm 1 m/s 762 mmHg 91%
21:00 -9°C° 0 mm 1 m/s 763 mmHg 90%
22:00 -9°C° 0 mm 1 m/s 763 mmHg 90%
23:00 -9°C° 0 mm 1 m/s 763 mmHg 89%

20 Janeiro, Quarta-feira

Tempo Temperatura Precipitação Vento Pressão Humidade
00:00 -10°C° 0 mm 1 m/s 763 mmHg 89%
01:00 -10°C° 0 mm 1 m/s 763 mmHg 89%
02:00 -10°C° 0 mm 1 m/s 763 mmHg 89%
03:00 -10°C° 0 mm 1 m/s 764 mmHg 89%
04:00 -10°C° 0 mm 1 m/s 764 mmHg 89%
05:00 -10°C° 0 mm 1 m/s 764 mmHg 88%
06:00 -10°C° 0 mm 1 m/s 764 mmHg 88%
07:00 -10°C° 0 mm 1 m/s 765 mmHg 88%
08:00 -10°C° 0 mm 1 m/s 765 mmHg 87%
09:00 -10°C° 0 mm 1 m/s 765 mmHg 87%
10:00 -8°C° 0 mm 1 m/s 766 mmHg 85%
11:00 -6°C° 0 mm 1 m/s 766 mmHg 83%
12:00 -3°C° 0 mm 1 m/s 766 mmHg 80%
13:00 -3°C° 0 mm 1 m/s 766 mmHg 80%
14:00 -2°C° 0 mm 1 m/s 766 mmHg 80%
15:00 -2°C° 0 mm 1 m/s 766 mmHg 80%
16:00 -3°C° 0 mm 1 m/s 766 mmHg 81%
17:00 -6°C° 0 mm 1 m/s 767 mmHg 82%
18:00 -8°C° 0 mm 1 m/s 767 mmHg 83%
19:00 -8°C° 0 mm 1 m/s 767 mmHg 82%
20:00 -8°C° 0 mm 1 m/s 768 mmHg 81%
21:00 -8°C° 0 mm 1 m/s 768 mmHg 80%
22:00 -7°C° 0 mm 1 m/s 768 mmHg 82%
23:00 -7°C° 0 mm 1 m/s 768 mmHg 83%

21 Janeiro, Quinta-feira

Tempo Temperatura Precipitação Vento Pressão Humidade
00:00 -6°C° 0 mm 1 m/s 768 mmHg 85%
01:00 -6°C° 0 mm 1 m/s 768 mmHg 86%
02:00 -6°C° 0 mm 1 m/s 768 mmHg 87%
03:00 -7°C° 0 mm 2 m/s 768 mmHg 88%
04:00 -6°C° 0 mm 2 m/s 768 mmHg 89%
05:00 -6°C° 0 mm 2 m/s 768 mmHg 90%
06:00 -5°C° 0 mm 2 m/s 768 mmHg 91%
07:00 -6°C° 0.1 mm 3 m/s 768 mmHg 92%
08:00 -5°C° 0.1 mm 3 m/s 768 mmHg 94%
09:00 -4°C° 0.1 mm 3 m/s 769 mmHg 95%
10:00 -2°C° 0.2 mm 3 m/s 769 mmHg 96%
11:00 -1°C° 0.2 mm 3 m/s 768 mmHg 97%
12:00 +1°C° 0.2 mm 3 m/s 768 mmHg 98%
13:00 +1°C° 0.1 mm 3 m/s 768 mmHg 98%
14:00 +1°C° 0.1 mm 3 m/s 768 mmHg 99%
15:00 +1°C° 0.1 mm 3 m/s 768 mmHg 99%
16:00 +1°C° 0 mm 4 m/s 768 mmHg 95%
17:00 +1°C° 0 mm 4 m/s 768 mmHg 92%
18:00 +1°C° 0 mm 5 m/s 768 mmHg 88%
19:00 +1°C° 0 mm 5 m/s 768 mmHg 86%
20:00 +1°C° 0 mm 5 m/s 768 mmHg 84%
21:00 +2°C° 0 mm 6 m/s 768 mmHg 83%
22:00 +2°C° 0 mm 6 m/s 768 mmHg 82%
23:00 +2°C° 0 mm 6 m/s 768 mmHg 82%

22 Janeiro, Sexta-feira

Tempo Temperatura Precipitação Vento Pressão Humidade
00:00 +2°C° 0 mm 6 m/s 768 mmHg 82%
01:00 +2°C° 0 mm 6 m/s 768 mmHg 83%
02:00 +2°C° 0 mm 6 m/s 768 mmHg 84%
03:00 +2°C° 0 mm 6 m/s 768 mmHg 85%
04:00 +2°C° 0 mm 6 m/s 768 mmHg 85%
05:00 +2°C° 0 mm 5 m/s 768 mmHg 86%
06:00 +2°C° 0 mm 5 m/s 768 mmHg 87%
07:00 +2°C° 0 mm 5 m/s 768 mmHg 86%
08:00 +2°C° 0 mm 5 m/s 768 mmHg 86%
09:00 +2°C° 0 mm 5 m/s 768 mmHg 85%
10:00 +2°C° 0 mm 5 m/s 768 mmHg 88%
11:00 +3°C° 0 mm 4 m/s 768 mmHg 90%
12:00 +3°C° 0 mm 4 m/s 767 mmHg 92%
13:00 +3°C° 0 mm 4 m/s 767 mmHg 92%
14:00 +3°C° 0 mm 4 m/s 767 mmHg 92%
15:00 +3°C° 0 mm 4 m/s 766 mmHg 92%
16:00 +3°C° 0 mm 4 m/s 766 mmHg 88%
17:00 +3°C° 0 mm 3 m/s 766 mmHg 85%
18:00 +2°C° 0 mm 3 m/s 766 mmHg 82%
19:00 +2°C° 0 mm 3 m/s 766 mmHg 81%
20:00 +2°C° 0 mm 3 m/s 766 mmHg 80%
21:00 +2°C° 0 mm 3 m/s 766 mmHg 80%
22:00 +2°C° 0 mm 3 m/s 765 mmHg 80%
23:00 +2°C° 0 mm 3 m/s 765 mmHg 79%
Mostrar mais